Regional Weather Roundup
Issued by NWS Mobile, AL

Home | Current Version | Previous Version | Text Only | Print | Product List | Glossary On
Versions: 1 2 3 4 5 6 7 8 9 10 11 12 13 14 15 16 17 18 19 20 21 22 23 24 25 26 27 28 29 30 31 32 33 34 35 36 37 38 39 40 41 42 43 44 45 46 47 48 49 50
000
ASUS44 KMOB 041117
RWRMOB
REGIONAL WEATHER ROUNDUP
NATIONAL WEATHER SERVICE MOBILE AL
600 AM CDT TUE AUG 04 2015

ALZ061>064-041200-
COASTAL ALABAMA


CITY           SKY/WX    TMP DP  RH WIND       PRES   REMARKS
MOBILE REG APT PTCLDY    75  74  96 W3        29.99R FOG
BROOKLEY FIELD CLEAR     77  74  90 W3        29.99R
GULF SHORES    MOSUNNY   74  74  99 CALM      29.97R FOG

$$

ALZ051>060-041200-
INTERIOR SOUTHWEST AND SOUTH CENTRAL ALABAMA


CITY           SKY/WX    TMP DP  RH WIND       PRES   REMARKS
ANDALUSIA/OPP  CLEAR     77  72  84 CALM      29.98R
EVERGREEN      CLEAR     68  67  96 CALM      29.98R
FLORALA        SUNNY     74  72  93 SW3       30.00R
GREENVILLE     FAIR      66  63  90 CALM      29.97R

$$

FLZ001>006-041200-
WESTERN FLORIDA PANHANDLE


CITY           SKY/WX    TMP DP  RH WIND       PRES   REMARKS
CRESTVIEW      PTCLDY    75  74  96 S3        29.99R FOG
DESTIN         CLEAR     82  78  88 CALM      29.97R
DUKE FIELD     FAIR      75  73  95 S5        29.97R
MARY ESTHER    CLEAR     78  75  89 CALM      29.96R
MILTON         SUNNY     76  74  93 CALM      29.98R FOG
PENSACOLA      CLEAR     79  76  90 NW5       29.97R
NAS PENSACOLA  PTCLDY    77  75  93 CALM      29.97R
VALPARAISO     PTCLDY    79  76  91 CALM      29.98R

$$

...MARINE OBSERVATIONS...

STATION/POSITION TIME  SKY/WX   TEMP    WIND        PRES    VSBY
                                AIR SEA DIR/SP/G
                 (UTC)          (F)     (DEG/KT/KT) (MB)    (MI)
PASCAGOULA       1000            80     330/  3/  4 1014.5R
PETIT BOIS ISL   1000            85     270/  6/  8 1015.0R
E DAUPHIN ISLAND 1100            82     290/  5/  6 1014.9R
MIDDLE BAY LIGHT 1000            81     300/ 10     1014.2R
USCG MOBILE BAY  1000            80 86  300/  4/  5 1013.5R
STATE DOCKS      1000            80 87              1014.2R
MEAHER PARK      1100            80     330/  2     1014.6R
FORT MORGAN      1000            84                 1014.1R
12 S ORANGE BCH  1050            85 86  280/ 10/ 12 1014.1R
WVE H/P(F/S)=  1/ 3

PENSACOLA BAY    1000            81 86  280/  2/  3 1014.7R
64 S DAUPHIN ISL 1050            83 86  230/  8/ 12 1015.2R
WVE H/P(F/S)=  2/ 6

67 S FORT MORGAN 1030            82     220/  6     1014.9
115 SE PENSACOLA 1050            84 86  260/ 10/ 14 1015.6R
WVE H/P(F/S)=  2/ 6

MID GULF/42001   1050            85 85  180/  6/  8 1015.8R
WVE H/P(F/S)=  2/ 5

EAST GULF/42003  1050            83 84  160/  6/  8 1016.0R
WVE H/P(F/S)=  2/ 5


$$

...NEARBY LOCATIONS

CITY           SKY/WX    TMP DP  RH WIND       PRES   REMARKS
GULFPORT       CLEAR     76  73  91 CALM      29.97R
BILOXI         CLEAR     78  75  92 VRB1      29.97R
PASCAGOULA     CLEAR     72  72 100 CALM      29.98R
HATTIESBURG    CLEAR     73  71  93 CALM      29.99R
LAUREL         CLEAR     70  66  88 CALM      30.00S
MERIDIAN       CLEAR     67  64  90 CALM      29.99R
MERIDIAN NAS   PTCLDY    69  66  90 CALM      29.99R
MONTGOMERY     CLEAR     70  65  84 NW3       29.97R
MAXWELL AFB    CLEAR     69  68  96 CALM      29.97R
TROY           CLEAR     68  67  96 CALM      29.98R
FORT RUCKER    CLEAR     72  70  93 CALM      29.96R FOG
DALEVILLE      CLEAR     73  72  97 W2        29.96R
DOTHAN         CLEAR     75  73  93 NW3       30.00R

$$

...OTHER SURROUNDING LOCATIONS...

CITY           SKY/WX    TMP DP  RH WIND       PRES   REMARKS
BIRMINGHAM     PTCLDY    71  65  81 CALM      30.01R
TUSCALOOSA     CLEAR     69  67  93 CALM      29.98R
COLUMBUS GA    CLEAR     75  71  87 CALM      29.97R
PANAMA CITY    NOT AVBL
TALLAHASSEE    MOCLDY    80  77  90 CALM      29.96R
BATON ROUGE    CLEAR     75  72  90 NE3       29.96R
NEW ORLEANS    MOCLDY    81  75  82 NE3       29.95R
SLIDELL        CLEAR     72  71  97 CALM      29.96R
JACKSON        CLEAR     72  68  87 CALM      29.98R
MCCOMB         CLEAR     74  73  97 CALM      29.98R

$$

...SURROUNDING MARINE OBSERVATIONS...

STATION/POSITION TIME  SKY/WX   TEMP    WIND        PRES    VSBY
                                AIR SEA DIR/SP/G
                 (UTC)          (F)     (DEG/KT/KT) (MB)    (MI)
WAVELAND         1000            79 87  300/  2/  3 1014.8R
PASCAGOULA RGN A 1000            80     330/  3/  3 1014.2R
PASCAGOULA PORT  1000               88                N/A
GRAND ISLE       1000            84 89  240/  6/  9 1013.9S
SOUTHWEST PASS   1100                                 N/A
PILOT STATION E  1000            84 86  190/ 10/ 12 1014.5R
SHELL BEACH      1000            82 88  180/  4/  5 1013.6R
PANAMA CITY      1000            85 88  260/  9/ 10 1013.8R
APALACHICOLA     1000            82 88  280/  3/  5 1014.2R
TYNDALL TOWER C  1100            84     260/ 17/ 19 1015.1R
S APLCHCLA/42036 1050            84 84  250/ 12/ 16 1015.3R
WVE H/P(F/S)=  3/ 6


$$



USA.gov is the U.S. government's official web portal to all federal, state and local government web resources and services.